UMKA 1 (RS40S)

Last updated on Sat Dec 13 2025 00:03:10 GMT+0000 (Coordinated Universal Time)

1 57172U 23091G 25346.28084127 .00010746 00000+0 52763-3 0 9992 2 57172 97.5345 40.7469 0014808 55.0047 305.2574 15.18161802135625
UTC large
Height (km)
Speed (km/s)
/
Latitude / Longitude
Inclination (degrees)
Orbital Period (minutes)
Azimuth
Elevation
Range (km)
Doppler Factor

Next 0 passes for location: London (51.5072 / 0.1276)

Sorry there are no passes over London.